Location: Chillicothe
(39.7950°N, 93.5520°W)
Time: 15:25:26
(UTC-05:00)

Transit 2A - All Passes

Search period start: 16 October 2019 00:00
Search period end: 26 October 2019 00:00
Orbit: 600 x 959 km, 66.7° (Epoch: 16 October)

Date Brightness Start Highest point End Pass type
(mag) Time Alt. Az. Time Alt. Az. Time Alt. Az.
16 Oct - 06:14:04 10° NNW 06:18:23 57° ENE 06:22:40 10° SE visible
16 Oct - 07:59:18 10° W 08:00:57 12° WSW 08:02:35 10° SW daylight
16 Oct - 20:52:09 10° SSW 20:57:42 64° ESE 21:02:45 10° NE visible
16 Oct - 22:37:22 10° W 22:41:12 20° NW 22:44:50 10° N visible
17 Oct - 05:40:08 10° NNW 05:44:12 37° NE 05:48:14 10° ESE visible
17 Oct - 07:23:56 10° WNW 07:27:02 19° WSW 07:30:08 10° SSW daylight
17 Oct - 20:18:22 10° S 20:23:39 42° ESE 20:28:28 10° NE visible
17 Oct - 22:02:19 10° WSW 22:06:55 27° NW 22:11:09 10° N visible
18 Oct - 05:06:20 10° N 05:09:58 25° NE 05:13:33 10° ESE visible
18 Oct - 06:49:16 10° NW 06:53:05 30° WSW 06:56:54 10° S visible
18 Oct - 19:44:52 10° SSE 19:49:37 29° ESE 19:54:01 10° NE visible
18 Oct - 21:27:35 10° WSW 21:32:40 38° NW 21:37:20 10° NNE visible
19 Oct - 04:32:43 10° N 04:35:39 17° NE 04:38:32 10° E visible
19 Oct - 06:14:52 10° NW 06:19:04 49° WSW 06:23:16 10° S visible
19 Oct - 19:11:46 10° SSE 19:15:38 19° ESE 19:19:17 10° ENE visible
19 Oct - 20:53:04 10° SW 20:58:30 55° WNW 21:03:25 10° NNE visible
20 Oct - 03:59:33 10° NNE 04:01:16 12° NE 04:02:58 10° ENE visible
20 Oct - 05:40:39 10° NNW 05:45:01 81° WSW 05:49:22 10° SSE visible
20 Oct - 18:39:27 10° SE 18:41:42 13° ESE 18:43:53 10° E daylight
20 Oct - 20:18:47 10° SSW 20:24:21 81° WNW 20:29:23 10° NNE visible
20 Oct - 22:05:49 10° WNW 22:08:10 13° NW 22:10:27 10° NNW visible
21 Oct - 05:06:34 10° NNW 05:10:53 63° ENE 05:15:13 10° SE visible
21 Oct - 06:52:24 10° W 06:53:25 11° WSW 06:54:25 10° WSW visible
21 Oct - 19:44:43 10° SSW 19:50:16 69° ESE 19:55:16 10° NE visible
21 Oct - 21:30:14 10° W 21:33:48 18° NW 21:37:10 10° N visible
22 Oct - 04:32:36 10° NNW 04:36:44 40° NE 04:40:50 10° SE visible
22 Oct - 06:16:36 10° WNW 06:19:30 18° WSW 06:22:25 10° SSW visible
22 Oct - 19:10:54 10° S 19:16:11 46° ESE 19:21:01 10° NE visible
22 Oct - 20:55:07 10° WSW 20:59:29 25° NW 21:03:34 10° N visible
23 Oct - 03:58:46 10° N 04:02:30 27° NE 04:06:12 10° ESE visible
23 Oct - 05:41:51 10° NW 05:45:33 28° WSW 05:49:17 10° S visible
23 Oct - 18:37:21 10° S 18:42:09 31° ESE 18:46:36 10° NE daylight
23 Oct - 20:20:19 10° WSW 20:25:14 35° NW 20:29:46 10° NNE visible
24 Oct - 03:25:07 10° N 03:28:12 18° NE 03:31:16 10° E night (unlit)
24 Oct - 05:07:25 10° NW 05:11:33 44° WSW 05:15:43 10° S visible
24 Oct - 18:04:09 10° SSE 18:08:10 21° ESE 18:11:55 10° ENE daylight
24 Oct - 19:45:45 10° SW 19:51:03 51° WNW 19:55:52 10° NNE visible
25 Oct - 02:51:49 10° NNE 02:53:50 13° NE 02:55:51 10° ENE night (unlit)
25 Oct - 04:33:10 10° NNW 04:37:30 73° WSW 04:41:52 10° SSE night (unlit)
25 Oct - 17:31:36 10° SE 17:34:12 14° ESE 17:36:43 10° ENE daylight
25 Oct - 19:11:25 10° SW 19:16:54 75° WNW 19:21:52 10° NNE visible
25 Oct - 20:58:56 10° WNW 21:00:46 12° NW 21:02:34 10° NNW visible
